Regional Weather Roundup
Issued by NWS

Home | Current Version | Previous Version | Text Only | Print | Product List | Glossary On
Versions: 1 2 3 4 5 6 7 8 9 10 11 12 13 14 15 16 17 18 19 20 21 22 23 24 25 26 27 28 29 30 31 32 33 34 35 36 37 38 39 40 41 42 43 44 45 46 47 48 49 50
000
ASCA44 KEWX 240420
RWRMX

LATIN AMERICA AND CARIBBEAN REGIONAL WEATHER ROUNDUP
NATIONAL WEATHER SERVICE AUSTIN/SAN ANTONIO TX
1100 PM CDT WED JUL 23 2014

NOTE: "FAIR" INDICATED FEW OR NO CLOUDS BELOW 12,000 FEET WITH NO
SIGNIFICANT WEATHER AND/OR OBSTRUCTIONS TO VISIBILITY.

BAJA CALIFORNIA

CITY           SKY/WX    TMP DP  RH WIND       PRES   REMARKS
LA PAZ         PTCLDY    91  68  46 CALM      29.80S HX  95
MEXICALI       CLEAR    102  45  14 S6        29.71R HX  98
S.J. DEL CABO  CLEAR     88  64  45 SE14      29.83S
TIJUANA        CLEAR     70  61  73 W6        29.93S

NORTHWESTERN MEXICO

CITY           SKY/WX    TMP DP  RH WIND       PRES   REMARKS
CULIACAN       CLOUDY    91  77  62 NW12      29.79F HX 105
HERMOSILLO     CLOUDY   102  52  18 S5        29.82R HX 100
LOS MOCHIS       N/A    N/A N/A N/A MISG        N/A
OBREGON          N/A    N/A N/A N/A MISG        N/A

NORTHEASTERN MEXICO

CITY           SKY/WX    TMP DP  RH WIND       PRES   REMARKS
CHIHUAHUA      PTCLDY    82  50  32 SE14      30.19R
MONTERREY      PTCLDY    82  61  47 CALM      30.00R
REYNOSA        PTCLDY    81  70  69 SE12      30.01R
SALTILLO       CLEAR     73  61  64 N9        30.24R
TORREON        MOCLDY    75  59  57 N6        30.14R
CD. VICTORIA   CLEAR     82  70  65 S7        30.00R

WESTERN MEXICO

CITY           SKY/WX    TMP DP  RH WIND       PRES   REMARKS
AGUASCALIENTES CLEAR     63  43  48 E6        30.28R
DEL BAJIO      PTCLDY    70  48  46 NE12      30.30S
GUADALAJARA    PTCLDY    72  52  49 SE10      30.12S
MAZATLAN       CLOUDY    84  75  74 W14       29.73F HX  92
P. VALLARTA    TSTM      72  70  94 E13       29.93R
ZACATECAS      PTCLDY    68  43  40 SE18      30.32R

CENTRAL MEXICO

CITY           SKY/WX    TMP DP  RH WIND       PRES   REMARKS
MEXICO CITY    MOCLDY    59  50  72 W10       30.39S
MORELIA        CLOUDY    57  55  94 W7        30.27S
QUERETARO      PTCLDY    63  55  77 NE6       30.33S
S. LUIS POTOSI PTCLDY    64  52  63 S9        30.30R
TAMPICO        CLEAR     82  75  78 SE13      30.00R
TOLUCA         MOCLDY    52  45  76 NE6       30.46S

SOUTHERN MEXICO

CITY           SKY/WX    TMP DP  RH WIND       PRES   REMARKS
ACAPULCO       MOCLDY    86  81  84 CALM      29.86R HX 102
OAXACA         CLOUDY    70  50  49 E6        30.25R
VERACRUZ       PTCLDY    81  73  78 N5        29.99F

YUCATAN PENINSULA

CITY           SKY/WX    TMP DP  RH WIND       PRES   REMARKS
CAMPECHE       CLEAR     84  72  65 E12       29.96R
CANCUN         PTCLDY    81  77  89 E6        30.02S
CD. DEL CARMEN CLOUDY    82  75  78 NE9       29.97R
COZUMEL        PTCLDY    77  75  94 E5        30.02S
MERIDA         CLEAR     79  68  69 E8        30.01R
MINATITLAN     PTCLDY    84  73  70 N12       29.94  HX  91
TAPACHULA      CLOUDY    75  72  88 CALM      29.88R
TUX. GUTIERREZ PTCLDY    77  70  78 NW5       29.98R
VILLAHERMOSA   PTCLDY    81  70  69 E17       29.98R

CENTRAL AMERICA

CITY           SKY/WX    TMP DP  RH WIND       PRES   REMARKS

CARIBBEAN

CITY           SKY/WX    TMP DP  RH WIND       PRES   REMARKS
ARUBA          PTCLDY    82  75  78 E21       29.92S
CURACAO        PTCLDY    81  75  83 E15       29.94S
KINGSTON       PTCLDY    86  72  62 SE13      29.97S HX  92
NASSAU         PTCLDY    82  75  78 SE5       30.07F
SAN JUAN       MOCLDY    82  75  78 E10       30.07F
SANTO DOMINGO  PTCLDY    81  73  78 E6        30.03S
ST. CROIX      PTCLDY    81  73  78 E14       30.05F
ST. MAARTEN    PTCLDY    82  73  74 E12       30.06S
ST. THOMAS     CLOUDY    82  75  78 E9G17     30.06S

$$



USA.gov is the U.S. government's official web portal to all federal, state and local government web resources and services.